彩虹 10星 (RADUGA 10)

导读 | 星芒AI

RADUGA 10 是俄罗斯的一颗军用通信卫星,属于“彩虹”(Raduga)系列。该系列卫星主要用于军事通信,支持安全、加密的远距离数据传输。RADUGA 10 由俄罗斯国家航天集团(Roscosmos)运营,旨在增强俄军的通信能力与战略指挥系统。该卫星可能搭载了先进的通信载荷,以确保在复杂电磁环境下的稳定通信。其发射进一步体现了俄罗斯在发展自主军事航天系统方面的努力。

基本信息
目录编号:
12897
目录名称:
RADUGA 10
国际标识:
1981-102A
轨道中心:
EARTH
卫星名称:
彩虹 10星
卫星全名:
彩虹 10星 (RADUGA 10)
卫星状态:
在轨 (已飞行16076 天)
发射日期:
1981-10-09 UTC
国别 :
俄罗斯(独联体) (CIS)
星等 :
--
轨道信息
数据来源 国际轨道数据 AOE轨道数据
星历时间 2025-10-13T23:26:20+0800
22小时前
查看轨道信息
2025-10-12T02:00:00+0800
2天前
查看轨道信息
半长轴 42168.205km 42168.345km
偏心率 0.0004346 0.0004335
轨道倾角 7.287° 7.291°
近地点辐角 250.512° 249.998°
升交点赤经 296.892° 296.909°
平近点角 132.746° 169.877°
近地点 35771.743km 35771.93km
远地点 35808.397km 35808.49km
周期 1436.274分钟 1436.281分钟
每日圈数 1.002594 1.002589
详细信息
平衡模式:
三轴稳定
覆盖范围:
全球
运营商:
俄罗斯国家航天集团
运营商所在国:
俄罗斯
制造商(研发单位):
普里克拉德诺伊·梅哈尼基设计局
制造商所在国:
俄罗斯联邦
使用方式:
暂无
卫星简介
彩虹卫星(Raduga, Gran)是苏联用于军事和通信目的的一系列地球静止通信卫星。彩虹卫星旨在支持军事通信、Orbita地面电视网络,并在整个东半球(极地地区除外)提供电话和电报通信。该卫星已退役。
2D轨道图
3D轨道图
轨道高度分析图
轨道倾角分析图
轨道综合分析图
查看轨道综合分析图